Regional Weather Roundup
Issued by NWS Burlington, VT

Home | Current Version | Previous Version | Text Only | Print | Product List | Glossary On
Versions: 1 2 3 4 5 6 7 8 9 10 11 12 13 14 15 16 17 18 19 20 21 22 23 24 25 26 27 28 29 30 31 32 33 34 35 36 37 38 39 40 41 42 43 44 45 46 47 48 49 50
000
ASUS41 KBTV 310010
RWRBTV
VERMONT REGIONAL WEATHER ROUNDUP
NATIONAL WEATHER SERVICE BURLINGTON VT
800 PM EDT SAT AUG 30 2014

NOTE: "FAIR" INDICATES FEW OR NO CLOUDS BELOW 12,000 FEET WITH NO
SIGNIFICANT WEATHER AND/OR OBSTRUCTIONS TO VISIBILITY.

* THESE REPORTS ARE NOT UNDER NWS QUALITY CONTROL AND/OR DO NOT
  REPORT WEATHER SUCH AS PRECIPITATION AND FOG.

VTZ001>019-310100-
_____VERMONT_____


CITY           SKY/WX    TMP DP  RH WIND       PRES   REMARKS
BURLINGTON     PTCLDY    74  59  59 S12       30.02S
6HR MIN TEMP:  74; 6HR MAX TEMP:  80;

MONTPELIER     CLEAR     67  60  78 SE7       30.11F
6HR MIN TEMP:  67; 6HR MAX TEMP:  77;

MORRISVILLE    CLEAR     68  58  70 CALM      30.05F
6HR MIN TEMP:  68; 6HR MAX TEMP:  78;

ST. JOHNSBURY*   N/A     70  58  65 MISG      30.05F
6HR MIN TEMP:  70; 6HR MAX TEMP:  76;

MIDDLEBURY*    FAIR      70  61  73 SE5       30.05F
6HR MIN TEMP:  70; 6HR MAX TEMP:  79;

RUTLAND*       PTCLDY    70  61  73 SE6       30.09S
6HR MIN TEMP:  70; 6HR MAX TEMP:  77;

SPRINGFIELD    CLEAR     69  59  70 SW3       30.11S
6HR MIN TEMP:  69; 6HR MAX TEMP:  76;

HIGHGATE*      FAIR      73  59  61 S12G20    29.98S
6HR MIN TEMP:  73; 6HR MAX TEMP:  78;

NEWPORT*       FAIR      67  59  75 SE9       30.04S
6HR MIN TEMP:  67; 6HR MAX TEMP:  75;

BENNINGTON     CLEAR     68  59  73 VRB3      30.12S
6HR MIN TEMP:  68; 6HR MAX TEMP:  78;

SUTTON*          N/A     66 N/A N/A MISG        N/A

_____LAKE CHAMPLAIN_____


CITY           SKY/WX    TMP DP  RH WIND       PRES   REMARKS
COLCHESTER RF*   N/A     73  63  68 S23         N/A
DIAMOND ISL*     N/A    N/A N/A N/A S16         N/A

$$

NYZ007-026>031-035-052-083-310100-
_____NORTHERN NEW YORK_____


CITY           SKY/WX    TMP DP  RH WIND       PRES   REMARKS
PLATTSBURGH    CLEAR     72  61  68 S7        29.98S
6HR MIN TEMP:  72; 6HR MAX TEMP:  77;

SARANAC LAKE   PTCLDY    70  58  65 S9        30.04R
6HR MIN TEMP:  70; 6HR MAX TEMP:  79;

MASSENA        MOCLDY    73  63  70 S3        29.95S
6HR MIN TEMP:  72; 6HR MAX TEMP:  82;

OGDENSBURG*    CLEAR     75  64  69 S7        29.95S
POTSDAM*       PTCLDY    73  64  73 SW6       29.96S
WATERTOWN      CLOUDY    77  62  59 S12G21    29.95F
6HR MIN TEMP:  77; 6HR MAX TEMP:  83;

FT DRUM        CLOUDY    75  60  58 S12       29.97S
6HR MIN TEMP:  75; 6HR MAX TEMP:  83;

ALBANY         PTCLDY    74  59  59 S12G18    30.09S
6HR MIN TEMP:  74; 6HR MAX TEMP:  80;

GLENS FALLS    CLEAR     71  60  68 S7        30.07S
6HR MIN TEMP:  71; 6HR MAX TEMP:  78;


$$
NHZ002-005-011-310100-
_____NEW HAMPSHIRE_____


CITY           SKY/WX    TMP DP  RH WIND       PRES   REMARKS
LEBANON        PTCLDY    67  59  75 S3        30.09S
6HR MIN TEMP:  67; 6HR MAX TEMP:  78;

KEENE          CLEAR     68  54  60 S5        30.13S
6HR MIN TEMP:  68; 6HR MAX TEMP:  75;

MT WASHINGTON  PTCLDY    54  37  54 W26         N/A
                   6HR MAX TEMP:  54;

PLYMOUTH       FAIR      65  64  97 CALM      30.10F
6HR MIN TEMP:  65; 6HR MAX TEMP:  76;

WHITEFIELD     PTCLDY    65  58  78 CALM      30.09F
6HR MIN TEMP:  65; 6HR MAX TEMP:  78;


$$

_____REGIONAL QUEBEC LOCATIONS_____


CITY           SKY/WX    TMP DP  RH WIND       PRES   REMARKS
MONTREAL       CLOUDY    73  63  68 S10       29.94F
QUEBEC CITY    CLOUDY    68  64  88 NE2       29.95F
SHERBROOKE     CLEAR     68  59  73 SE6       30.02F

_____REGIONAL ONTARIO LOCATIONS_____


CITY           SKY/WX    TMP DP  RH WIND       PRES   REMARKS
OTTAWA         MOCLDY    73  63  68 S8        29.93S

______KEY______
VSB  - VISIBILITY IN MILES
WCI  - WIND CHILL INDEX
HX   - HEAT INDEX
$$
NNNN



USA.gov is the U.S. government's official web portal to all federal, state and local government web resources and services.